Location: Elstree
(51.6403°N, 0.2969°W)
Time: 20:45:05
(UTC+00:00)

Daily predictions for brighter satellites

Satellite Brightness Start Highest point End
(mag) Time Altitude Azimuth Time Altitude Azimuth Time Altitude Azimuth
Gbstr 26 Del rocket 3.3 18:08:13 10° WSW 18:12:27 72° SSE 18:17:39 10° ENE
IRS-1C Rocket 4.1 18:08:29 10° SSE 18:13:45 76° ENE 18:19:02 10° NNW
SL-4 R/B 1.6 18:11:07 10° W 18:14:45 88° N 18:18:13 10° E
Meteor 1-20 Rocket 4.3 18:10:44 10° S 18:16:01 53° E 18:21:22 10° NNE
Cosmos 1302 Rocket 4.0 18:10:58 10° S 18:16:06 64° ESE 18:21:16 10° NNE
CSL-04 DEB 4.4 18:13:57 10° NNE 18:17:53 62° ESE 18:21:50 10° S
USA 307 3.0 18:16:43 10° W 18:21:01 76° NNW 18:25:18 10° ENE
FALCON 9 DEB 3.2 18:18:57 10° WNW 18:22:23 81° SSW 18:25:49 10° ESE
USA 306 3.1 18:20:08 10° W 18:24:25 74° NNW 18:28:41 10° ENE
Cosmos 1354 Rocket 4.3 18:19:22 10° NNW 18:24:30 48° ENE 18:29:33 10° SE
ATLAS CENTAUR R/B 2.8 18:22:27 10° SSE 18:24:32 15° ESE 18:26:37 10° E
Cosmos 44 Rocket 3.7 18:20:34 10° NW 18:25:50 79° SW 18:31:03 10° SE
USA 186 3.3 18:25:13 10° ENE 18:25:51 11° ENE 18:26:30 10° NE
FALCON 9 DEB 3.1 18:23:32 10° W 18:26:42 67° N 18:29:48 10° E
ERS-2 2.9 18:23:48 10° NE 18:27:04 30° E 18:30:19 10° SSE
Cosmos 1844 Rocket 2.9 18:22:39 10° NNW 18:28:07 53° NE 18:33:35 10° SE
Cosmos 2084 Rocket 3.5 18:24:01 10° NW 18:28:20 87° SW 18:32:48 10° SE
FALCON 9 DEB 3.1 18:25:28 10° W 18:28:40 69° N 18:31:45 11° ENE
Okean-O 2.6 18:25:14 10° SSE 18:29:39 73° ENE 18:34:06 10° NNW
CSL-04 Rocket 3.9 18:25:47 10° SE 18:31:09 53° ENE 18:36:30 10° N
USA 308 3.1 18:27:19 10° W 18:31:37 72° NNW 18:35:51 10° ENE
CSL-04 Debris 4.3 18:27:09 10° SE 18:32:28 58° ENE 18:37:51 10° N
Cosmos 1271 Rocket 3.5 18:29:03 10° NNW 18:32:43 55° W 18:36:23 10° S
Cosmos 1503 Rocket 4.0 18:29:36 10° NNW 18:34:48 64° ENE 18:39:55 10° SE
Cosmos 1666 4.2 18:32:52 10° ESE 18:35:05 15° E 18:37:19 10° NE
H-2A R/B 3.3 18:32:06 10° N 18:36:00 42° WNW 18:39:52 10° SW
SKYMED 2 3.9 18:32:48 10° N 18:37:09 73° WNW 18:41:29 10° SSW
HJ-1C 3.4 18:34:15 10° SSE 18:37:31 57° ENE 18:40:47 10° N
MOS 1 Rocket 4.0 18:33:11 10° N 18:38:09 67° WNW 18:43:22 10° SSW
PSLV R/B 4.0 18:34:12 10° NNE 18:38:14 51° E 18:42:12 10° S
Cosmos 1844 3.9 18:34:14 10° NNW 18:39:56 55° NE 18:45:33 10° SE
CZ-4B R/B 1.8 18:39:16 10° N 18:42:17 60° WNW 18:45:19 10° SSW
Cosmos 1470 Rocket 3.8 18:38:35 10° SSE 18:42:53 49° E 18:47:12 10° NNE
Cosmos 2278 Rocket 3.5 18:40:33 10° NNW 18:45:00 23° NE 18:48:35 13° E
Cosmos 2360 Rocket 2.8 18:40:08 10° S 18:45:11 35° ESE 18:50:18 10° NE
Cosmos 1602 3.7 18:42:35 10° S 18:46:29 78° E 18:50:25 10° NNE
Ariane Rocket 3.9 18:42:23 10° ESE 18:46:41 28° ENE 18:51:00 10° N
Meteor 1-19 Rocket 4.4 18:41:43 10° NNW 18:47:44 90° SSW 18:53:32 10° S
Meteor 2-4 Rocket 3.8 18:46:28 10° N 18:52:16 63° ENE 18:58:08 10° SSE
Cosmos 1703 Rocket 3.9 18:48:20 10° N 18:52:36 44° ENE 18:56:47 10° SSE
Cosmos 1500 3.4 18:50:01 10° SSE 18:53:33 44° E 18:57:08 10° NNE
Cosmos 2333 Rocket 3.4 18:51:34 10° SE 18:55:36 20° E 18:59:40 10° NE
Cosmos 1689 Rocket 1.9 18:52:49 10° NNE 18:55:41 64° ESE 18:58:33 10° S
SL-08 RB Rocket 3.6 18:53:44 10° SSE 18:58:14 74° ENE 19:02:49 10° N
Meteor 2-12 Rocket 4.4 18:53:08 10° S 18:59:07 67° E 19:05:11 10° NNE
ERBS 2.4 18:56:33 10° WSW 18:59:52 71° NNW 19:02:19 17° ENE
Cosmos 1980 Rocket 3.7 18:56:02 10° WSW 19:01:18 38° NW 19:06:37 10° NNE
Aureole 2 Rocket 2.7 19:00:57 10° NW 19:03:26 44° WSW 19:05:49 10° S
Cosmos 1943 Rocket 4.3 19:00:59 10° N 19:03:27 13° NNE 19:05:56 10° NE
Cosmos 1933 Rocket 3.6 18:59:32 10° S 19:03:47 53° E 19:08:05 10° NNE
Cosmos 1862 Rocket 4.4 19:00:16 10° NNW 19:04:41 57° W 19:09:04 10° S
Cosmos 1666 Rocket 4.4 19:01:08 10° SSW 19:05:22 52° WNW 19:09:37 10° N
Cosmos 2242 Rocket 3.5 19:06:10 10° N 19:10:43 74° ENE 19:15:10 10° SSE
Resurs 01 Rocket 2.9 19:12:41 20° ENE 19:13:18 21° ENE 19:16:36 10° NNE
Cosmos 2322 Rocket 2.2 19:09:22 10° SSW 19:14:59 89° ESE 19:20:39 10° NNE
Cosmos 1461 3.9 19:10:22 10° WSW 19:15:02 55° NW 19:19:42 10° NE
Abrixas rocket 2.2 19:13:29 10° WSW 19:15:50 38° S 19:16:07 36° SSE
Lacrosse 4 Rocket 3.6 19:14:08 10° SSE 19:14:29 11° SSE 19:14:29 11° SSE
FALCON 9 DEB 3.0 19:16:34 10° W 19:19:45 67° N 19:20:46 38° ENE
Helios 1A Rocket 3.7 19:16:41 10° S 19:20:40 54° WSW 19:24:39 10° NNW
YAOGAN 1 4.2 19:17:34 10° SSW 19:21:33 36° W 19:25:34 10° NNW
SJ-6B 2.9 19:22:30 17° SSE 19:25:28 60° ENE 19:29:29 10° N
COSMOS 2428 3.7 19:21:00 10° SSE 19:32:12 - NE 19:24:51 25° ESE
ASTEX 1 3.8 19:21:38 10° NNE 19:26:15 39° E 19:30:11 13° SSE
Cosmos 2154 Rocket 4.4 19:22:43 10° SSW 19:28:55 68° WNW 19:35:07 10° N
GP-B 3.1 19:25:06 10° S 19:29:32 83° W 19:34:01 10° N
Meteor 1-14 Rocket 4.2 19:24:31 10° SSW 19:30:05 84° WNW 19:35:40 10° NNE
MOS 1 4.3 19:25:33 14° SE 19:30:27 61° ENE 19:36:03 10° N
FALCON 9 DEB 2.9 19:29:00 10° WNW 19:32:11 72° N 19:32:42 56° ENE
Cosmos 2219 Rocket 2.8 19:27:28 10° SSE 19:32:22 32° ESE 19:37:18 10° NE
Meteor 1-11 Rocket 4.0 19:27:33 10° SSE 19:32:55 44° E 19:38:13 10° NNE
MetOp-A 4.1 19:29:11 10° SSE 19:34:32 89° ENE 19:39:57 10° NNW
OBJECT-B 0.7 19:36:26 59° ESE 19:36:43 63° ENE 19:39:56 10° N
Cosmos 1992 Rocket 4.3 19:31:50 10° SSW 19:37:03 70° WNW 19:42:18 10° NNE
ARGOS 4.4 19:33:50 10° SSW 19:38:57 42° W 19:44:08 10° NNW
SJ 16-02 1.9 19:35:02 10° N 19:39:08 37° ENE 19:39:34 36° ENE
SL-16 R/B 2.9 19:34:11 10° SW 19:39:44 55° NW 19:45:20 10° NNE
Okean 1-7 3.3 19:35:30 10° NNW 19:39:52 70° W 19:44:11 10° S
Resurs 1-3 3.8 19:38:47 38° ESE 19:39:59 50° ENE 19:44:16 10° N
SeaSat 1 2.4 19:35:11 10° NNE 19:40:10 87° SE 19:45:07 10° SSW
Cosmos 1066 Rocket 4.2 19:36:20 10° N 19:42:00 63° ENE 19:45:41 23° SSE
Meteor 1-13 Rocket 4.3 19:36:25 10° NNW 19:42:26 83° ENE 19:48:20 10° SSE
USA 234 3.5 19:39:54 25° ENE 19:43:34 48° SE 19:49:51 10° SSW
Cosmos 1536 4.4 19:46:16 22° NE 19:46:16 22° NE 19:47:56 10° NNE
CZ-4 R/B 4.4 19:42:36 10° SW 19:45:10 17° W 19:47:46 10° NW
CZ-2C R/B 3.0 19:42:07 10° N 19:47:38 70° WNW 19:52:59 10° SSW
Cosmos 2369 Rocket 4.2 19:45:59 10° N 19:48:44 14° NNE 19:50:42 12° NE
H-2A R/B 4.4 19:45:14 10° SSW 19:49:45 26° W 19:54:17 10° NW
USA 305 3.1 19:45:42 10° WNW 19:49:57 64° N 19:50:56 47° ENE
BREEZE-M DEB (TANK) 2.4 19:47:43 10° W 19:50:17 65° S 19:51:09 48° SE
IRS-1A Rocket 4.2 19:46:43 15° SSE 19:51:25 86° ENE 19:57:00 10° NNW
Cosmos 2322 3.7 19:46:39 10° S 19:52:13 55° ESE 19:57:48 10° NE
DMSP B5D2-2 4.0 19:48:12 10° NNE 19:53:29 88° WNW 19:58:42 10° SSW
SL-4 R/B 1.9 19:50:46 10° W 19:54:12 52° SSW 19:54:12 52° SSW
USA 186 3.1 19:56:42 29° W 19:56:42 29° W 19:58:38 10° NNW
Cosmos 1898 Rocket 4.3 19:52:56 10° NNW 19:57:38 33° NE 19:57:50 32° ENE
Cosmos 1869 Rocket 3.4 19:53:42 10° S 19:58:03 80° E 20:02:29 10° NNE
Gbstr 26 Del rocket 3.3 19:54:43 10° W 19:59:26 88° N 20:00:59 48° E
ERS-2 4.3 19:57:24 10° N 20:00:32 27° WNW 20:03:39 10° WSW
SL-8 Rocket 3.9 19:54:21 10° S 20:00:36 88° W 20:06:51 10° N
USA 307 3.0 19:57:01 10° WNW 20:01:17 65° N 20:01:49 58° NE
FALCON 9 DEB 3.7 19:59:27 10° WNW 20:01:56 51° WNW 20:01:56 51° WNW
ATLAS CENTAUR R/B 1.1 19:59:16 10° SW 20:02:53 72° NW 20:03:11 67° N
Cosmos 1378 3.1 20:00:24 10° N 20:03:53 76° N 20:03:53 76° N
USA 306 2.9 20:00:24 10° WNW 20:04:40 66° N 20:05:03 62° NE
FALCON 9 DEB 3.8 20:01:30 10° WNW 20:03:59 50° WNW 20:03:59 50° WNW
Cosmos 1666 3.4 20:06:36 10° SSW 20:10:14 51° WNW 20:13:55 10° N
Cosmos 1844 Rocket 4.2 20:06:54 10° NW 20:11:48 32° WSW 20:16:41 10° SSW
USA 308 2.9 20:07:37 10° WNW 20:11:54 67° N 20:12:00 67° NNE
Cosmos 2366 rocket 4.0 20:09:19 10° S 20:15:40 85° W 20:22:05 10° N
NOSS 3-3 (A) 4.4 20:08:29 10° NW 20:15:47 77° NE 20:18:42 44° ESE
NOSS 3-3 (C) 4.4 20:08:35 10° NW 20:15:53 76° NE 20:18:47 44° ESE
Landsat 7 4.2 20:17:04 47° NE 20:17:04 47° NE 20:21:02 10° N
SL-08 R/B 4.5 20:11:58 19° S 20:16:43 66° E 20:23:08 10° NNE
Okean 3 4.1 20:13:54 10° NNW 20:18:04 55° W 20:19:31 36° SSW
SPOT 3 Rocket 3.4 20:18:37 64° SE 20:19:22 77° ENE 20:24:37 10° NNW
ARIANE 5 R/B 4.1 20:21:37 26° NNE 20:21:37 26° NNE 20:24:03 10° N
Cosmos 2333 4.1 20:17:10 10° SSW 20:22:50 86° WNW 20:28:36 10° NNE
Cosmos 2221 Rocket 3.5 20:18:57 10° N 20:23:10 80° NNW 20:23:10 80° NNW
Ariane Rocket 3.6 20:22:15 22° S 20:25:24 53° W 20:30:25 10° NNW
Cosmos 2360 Rocket 3.0 20:23:33 10° SW 20:29:02 50° NW 20:34:36 10° NNE
SPOT 1/Viking Rocket 4.0 20:29:56 46° NE 20:29:56 46° NE 20:34:06 10° N
Cosmos 2278 Rocket 2.0 20:24:17 10° NNW 20:30:00 81° ENE 20:30:28 74° ESE
Cosmos 1727 Rocket 4.2 20:28:21 10° NNW 20:34:30 69° W 20:37:44 29° S
Cosmos 990 Rocket 4.1 20:29:29 10° NNW 20:34:05 60° NNE 20:34:05 60° NNE
Cosmos 2333 Rocket 2.2 20:33:30 10° SSW 20:39:12 82° WNW 20:44:59 10° NNE
Cosmos 1821 Rocket 3.8 20:41:55 71° E 20:41:55 71° E 20:47:51 10° NNE
Cosmos 1000 Rocket 4.4 20:41:27 10° N 20:47:46 89° WSW 20:48:32 71° S
Cosmos 1943 Rocket 3.4 20:44:08 10° NNW 20:48:24 30° NNE 20:48:24 30° NNE
Resurs 01 Rocket 2.4 20:50:14 50° WNW 20:50:14 50° WNW 20:53:50 10° NNW
MetOp-B 4.1 20:50:11 79° NW 20:50:11 79° NW 20:55:14 10° NNW
Lacrosse 4 Rocket 4.2 20:50:56 10° SW 20:50:57 10° SW 20:50:57 10° SW
Cosmos 2322 Rocket 4.3 20:55:14 10° W 20:59:47 25° NW 21:04:23 10° NNE
Cosmos 2123 Rocket 4.0 20:54:35 10° N 21:00:10 67° NNE 21:00:10 67° NNE
USA 245 4.5 21:07:21 71° NNW 21:07:21 71° NNW 21:12:55 10° NNW
Cosmos 1937 Rocket 4.4 21:03:10 10° NNW 21:06:40 43° NNW 21:06:40 43° NNW
COSMOS 2428 3.6 21:03:40 10° SW 21:14:01 16° NNE 21:15:03 10° NNE
OBJECT-B 4.2 21:09:30 10° W 21:09:30 10° W 21:09:55 10° WNW
Cosmos 2219 Rocket 2.8 21:10:37 10° SW 21:16:05 53° NW 21:21:38 10° NNE
SJ 16-02 3.3 21:13:46 10° NW 21:16:35 27° WNW 21:16:35 27° WNW
Terra 3.8 21:21:49 21° N 21:21:49 21° N 21:23:31 10° N
USA 234 3.3 21:27:15 76° WNW 21:27:15 76° WNW 21:33:26 10° WSW
USA 281 3.8 21:34:30 47° NNE 21:34:30 47° NNE 21:39:35 10° NNW
Cosmos 2369 Rocket 3.7 21:29:21 10° NNW 21:32:29 28° N 21:32:29 28° N
Cosmos 2278 Rocket 4.3 22:09:22 10° NW 22:12:20 19° W 22:12:20 19° W
Cosmos 2333 Rocket 4.3 22:19:52 10° W 22:24:23 23° NW 22:28:56 10° NNE
Cosmos 1943 Rocket 4.2 22:27:44 10° NW 22:29:55 24° NW 22:29:55 24° NW
